"Pseudo-MPEC" for C15X9W5

Created 2025 Oct 7 12:35:05 UT using Find_Orb

Click here for an explanation of pseudo-MPECs

 
 Astrometry: 
     C15X9W5* C2025 10 02.48516307 33 24.970+15 15 00.29   ~A2CZ 21.90GVNEOCPV00
     C15X9W5  C2025 10 02.49077407 33 25.621+15 14 52.84   ~A2CZ 21.55GVNEOCPV00
     C15X9W5  C2025 10 02.49636607 33 26.248+15 14 45.10   ~A2CZ 21.72GVNEOCPV00
     C15X9W5  C2025 10 02.50195607 33 26.874+15 14 37.50   ~A2CZ 22.35GVNEOCPV00

Station data:
(V00) Kitt Peak-Bok  (N31.963125 W111.600190)  US/Arizona. Measurers T.
   Beuden, V. F. Carvajal, D. Fay, J. B. Fazekas, D. C. Fuls, A. R. Gibbs, A.
   D. Grauer, H. Gröller, J. K. Hogan, R. A. Kowalski, S. M. Larson, G. J.
   Leonard, D. Rankin, R. L. Seaman, F. C. Shelly, K. W. Wierzchoś. 2.25-m
   reflector + 4x4K mosaic CCD.

Orbital elements:  C15X9W5
   Perihelion 2025 Jun 27.734522 +/- 83.7 TT = 17:37:42.7 (JD 2460854.234522)
Epoch 2025 Oct  2.0 TT = JDT 2460950.5   Earth MOID: 0.0158   Me: 0.0848
M 152.676975270 +/- 100             (J2000 ecliptic)             AutoNEOCP
n   1.585999248 +/- 1.07            Peri.   23.961344 +/- 90
a   0.728228040 +/- 0.328           Node   217.550907 +/- 60
e   0.55826653 +/- 0.251            Incl.   17.636346 +/- 60
P   0.621/226.982d         H 20.30  G  0.15   U 12.8  SR
q 0.321682699 +/- 0.5    Q 1.134773382 +/- 14.7
From 4 observations 2025 Oct. 2 (24.2 min); mean residual 0".08
Residuals in arcseconds: 
251002 V00  .09-  .07-    251002 V00  .03+  .03-    
251002 V00  .12+  .11+    251002 V00  .06-  .02-    

Ephemerides (geocentric):
Date (UTC) HH   RA             Dec           delta  r     elong  mag " sig PA
---- --------  ------------   ------------  ------ ------ -----  --- --------
2025 10 07 13  07 43 14.945   +13 14 31.36  .74490 1.1260  78.9 22.1  44d  79
2025 10 07 14  07 43 19.820   +13 13 29.03  .74461 1.1261  79.0 22.1  44d  79
2025 10 07 15  07 43 24.694   +13 12 26.66  .74433 1.1261  79.0 22.1  44d  79
2025 10 07 16  07 43 29.569   +13 11 24.24  .74405 1.1262  79.0 22.1  44d  79
2025 10 07 17  07 43 34.444   +13 10 21.77  .74377 1.1262  79.0 22.1  44d  79
2025 10 07 18  07 43 39.319   +13 09 19.25  .74348 1.1263  79.0 22.1  44d  79
2025 10 07 19  07 43 44.194   +13 08 16.69  .74320 1.1264  79.0 22.1  44d  79
2025 10 07 20  07 43 49.069   +13 07 14.08  .74292 1.1264  79.1 22.1  45d  79
2025 10 07 21  07 43 53.945   +13 06 11.42  .74263 1.1265  79.1 22.1  45d  79
2025 10 07 22  07 43 58.821   +13 05 08.72  .74235 1.1265  79.1 22.1  45d  79
2025 10 07 23  07 44 03.697   +13 04 05.96  .74207 1.1266  79.1 22.1  45d  79
2025 10 08 00  07 44 08.574   +13 03 03.16  .74178 1.1267  79.1 22.1  45d  79
2025 10 08 01  07 44 13.450   +13 02 00.31  .74150 1.1267  79.2 22.1  45d  79
2025 10 08 02  07 44 18.327   +13 00 57.42  .74122 1.1268  79.2 22.1  45d  79
2025 10 08 03  07 44 23.204   +12 59 54.48  .74093 1.1269  79.2 22.1  46d  79
2025 10 08 04  07 44 28.082   +12 58 51.49  .74065 1.1269  79.2 22.1  46d  79
2025 10 08 05  07 44 32.959   +12 57 48.45  .74036 1.1270  79.2 22.1  46d  79
2025 10 08 06  07 44 37.837   +12 56 45.36  .74008 1.1270  79.2 22.1  46d  79
2025 10 08 07  07 44 42.715   +12 55 42.22  .73980 1.1271  79.3 22.1  46d  79
2025 10 08 08  07 44 47.593   +12 54 39.04  .73951 1.1271  79.3 22.1  46d  79
2025 10 08 09  07 44 52.472   +12 53 35.81  .73923 1.1272  79.3 22.1  47d  79
2025 10 08 10  07 44 57.350   +12 52 32.53  .73894 1.1273  79.3 22.1  47d  79
2025 10 08 11  07 45 02.229   +12 51 29.20  .73866 1.1273  79.3 22.1  47d  79
2025 10 08 12  07 45 07.109   +12 50 25.83  .73837 1.1274  79.4 22.1  47d  79
2025 10 08 13  07 45 11.988   +12 49 22.40  .73808 1.1274  79.4 22.1  47d  79
2025 10 08 14  07 45 16.868   +12 48 18.93  .73780 1.1275  79.4 22.1  47d  79
2025 10 08 15  07 45 21.748   +12 47 15.41  .73751 1.1275  79.4 22.1  47d  79
2025 10 08 16  07 45 26.628   +12 46 11.84  .73723 1.1276  79.4 22.1  47d  79
2025 10 08 17  07 45 31.508   +12 45 08.22  .73694 1.1277  79.5 22.1  47d  79
2025 10 08 18  07 45 36.389   +12 44 04.55  .73666 1.1277  79.5 22.1  48d  79
2025 10 08 19  07 45 41.270   +12 43 00.84  .73637 1.1278  79.5 22.1  48d  79
2025 10 08 20  07 45 46.151   +12 41 57.07  .73608 1.1278  79.5 22.1  48d  79
2025 10 08 21  07 45 51.033   +12 40 53.26  .73580 1.1279  79.5 22.1  48d  79
2025 10 08 22  07 45 55.915   +12 39 49.40  .73551 1.1279  79.5 22.1  48d  79
2025 10 08 23  07 46 00.797   +12 38 45.49  .73522 1.1280  79.6 22.1  48d  79
2025 10 09 00  07 46 05.679   +12 37 41.53  .73494 1.1281  79.6 22.1  48d  79
2025 10 09 01  07 46 10.561   +12 36 37.52  .73465 1.1281  79.6 22.1  48d  79
2025 10 09 02  07 46 15.444   +12 35 33.46  .73436 1.1282  79.6 22.1  48d  79
2025 10 09 03  07 46 20.327   +12 34 29.35  .73408 1.1282  79.6 22.1  49d  79
2025 10 09 04  07 46 25.210   +12 33 25.19  .73379 1.1283  79.7 22.1  49d  79
2025 10 09 05  07 46 30.094   +12 32 20.99  .73350 1.1283  79.7 22.1  49d  79
2025 10 09 06  07 46 34.978   +12 31 16.73  .73321 1.1284  79.7 22.1  49d  79
2025 10 09 07  07 46 39.862   +12 30 12.42  .73292 1.1284  79.7 22.0  49d  79
2025 10 09 08  07 46 44.746   +12 29 08.07  .73264 1.1285  79.7 22.0  49d  79
2025 10 09 09  07 46 49.631   +12 28 03.66  .73235 1.1285  79.7 22.0  49d  79
2025 10 09 10  07 46 54.516   +12 26 59.21  .73206 1.1286  79.8 22.0  50d  79
2025 10 09 11  07 46 59.401   +12 25 54.70  .73177 1.1286  79.8 22.0  50d  79
2025 10 09 12  07 47 04.287   +12 24 50.15  .73148 1.1287  79.8 22.0  50d  79